Probability
0 84 100 100 100 100 100 100 100 100 100 100 100 100 100 100 100 100 100 100 100 100 100 100 100 100 100 100 100 100 100 100 100 100 94 100 100 100 100 100 100 100 100
10 97 100 100 100 100 100 100 100 100 100 100 100 100 100 100 100 87 84 100 100 100 100 100 100 100 100 100 100 100 100 100 100 100 97 97 100 100 100 100 100 100 100
16 100 100 100 100 100 100 100 100 100 100 100 100 100 100 100 100 90 90 100 100 100 100 100 100 100 100 100 100 100 100 100 100 100 97 97 100 100 100 97 100 100 100
29 100 100 100 100 100 100 100 100 100 100 100 100 100 100 100 100 100 100 100 100 100 100 100 100 100 100 100 100 100 100 100 100 100 94 94 94 100 100 90 94 97 100
61 100 100 100 100 100 100 100 100 100 100 100 100 100 100 100 100 100 100 100 100 100 100 100 100 100 100 100 100 100 100 100 100 97 81 77 90 100 100 94 97 94 100
77 100 100 100 100 100 100 100 100 100 100 100 100 100 100 100 100 100 94 97 100 100 100 100 100 100 94 90 94 100 100 100 100 97 94 94 100 100 100 97 97 100 100
97 100 100 100 100 100 100 100 100 100 100 100 100 100 100 100 100 100 90 97 100 100 100 100 100 45 6 45 71 87 100 100 65 74 90 100 100 100 100 100 100 100 100
97 100 100 100 100 100 100 100 100 100 100 100 100 100 100 100 100 100 81 68 94 100 97 100 90 13 3 10 23 84 100 100 74 39 77 100 100 100 100 100 100 100 100
94 100 100 100 100 100 100 100 100 100 100 100 100 100 100 100 100 100 45 48 87 100 97 77 32 0 6 0 0 42 97 100 3 32 29 87 100 100 100 100 100 100 100
58 97 100 100 100 100 100 100 100 100 100 100 100 100 100 100 100 94 3 42 90 100 97 84 48 29 3 0 10 68 100 61 3 32 61 81 84 90 100 100 100 100 100
90 87 87 84 87 94 97 100 100 100 100 100 100 100 100 84 81 26 0 32 94 94 84 52 23 0 0 0 23 87 3 0 0 3 61 100 58 55 97 100 97 97 100
81 74 68 68 65 48 77 94 97 100 100 100 100 100 39 6 0 0 0 45 90 90 58 19 6 0 0 0 0 0 0 0 0 23 87 100 84 61 77 87 97 100 100
68 77 55 39 45 26 23 55 58 84 74 52 55 39 3 0 0 0 0 32 16 61 16 16 3 0 0 0 0 0 0 0 0 23 97 100 100 100 90 97 100 100 100
48 65 55 32 35 10 13 29 42 42 16 3 6 3 0 0 0 0 0 0 3 6 0 0 0 0 0 0 0 0 0 0 0 0 84 100 100 100 100 100 100 97 97
35 48 39 32 19 16 10 10 16 0 0 0 0 0 0 0 0 0 0 0 0 0 0 0 0 0 0 0 0 0 0 0 0 0 0 100 100 100 100 100 100 100 100
10 39 32 48 23 19 6 6 3 0 0 0 0 0 0 0 0 0 0 0 0 0 0 0 0 0 0 0 0 0 0 0 0 0 0 0 100 100 100 100 100 100 100
3 19 26 42 35 19 6 6 3 0 0 0 0 0 0 0 0 0 0 0 0 0 0 0 0 0 0 0 0 0 0 0 0 0 0 0 0 90 100 100 100 100 100
13 19 19 42 26 26 16 10 6 0 0 0 0 0 0 0 0 0 0 0 0 0 0 0 0 0 0 0 0 0 0 0 0 0 0 0 0 3 77 100 100 100 100
42 32 13 6 13 19 13 10 0 0 0 0 0 0 0 3 0 0 0 0 0 0 0 0 0 0 0 0 0 0 0 0 0 0 0 0 0 0 3 19 97 100 100
71 68 45 23 10 10 3 0 0 0 0 0 0 0 0 0 0 0 0 0 0 0 0 0 0 0 0 0 0 0 0 0 0 0 0 0 0 0 0 0 0 0 74
84 84 81 71 26 6 0 0 0 0 0 0 0 0 0 0 0 0 0 0 0 0 0 0 0 0 0 0 0 0 0 0 0 0 0 0 0 0 0 0 0 0 0
84 84 81 90 48 23 13 3 0 0 0 0 0 0 0 0 0 0 0 0 0 0 0 0 0 0 0 0 0 0 0 0 0 0 0 0 0 0 0 0 0 0 0
84 81 90 77 48 23 6 0 0 0 0 0 0 0 0 0 0 0 0 0 0 0 0 0 0 0 0 0 0 0 0 0 0 0 0 0 0 0 0 0 0 0 0
90 84 74 55 39 48 35 10 0 0 0 0 0 0 0 0 0 0 0 0 0 0 0 0 0 0 0 0 0 0 0 0 0 0 0 0 0 0 0 0 0 0 0
74 61 39 23 32 65 71 45 6 0 0 0 0 0 0 0 0 0 0 0 0 0 0 0 0 0 0 0 0 0 0 0 0 0 0 0 0 0 0 0 0 0 0
45 42 26 23 48 74 68 42 10 0 0 0 0 0 0 0 0 0 0 0 0 0 0 0 0 0 0 0 0 0 0 0 0 0 0 0 0 0 0 0 0 0 0
Height
5896 5895 5895 5894 5892 5891 5890 5890 5889 5888 5887 5885 5884 5884 5883 5881 5880 5879 5878 5878 5877 5876 5876 5875 5875 5875 5877 5879 5881 5883 5884 5886 5887 5887 5888 5889 5890 5892 5893 5893 5894 5896 5898
5897 5896 5896 5895 5894 5892 5891 5891 5890 5889 5888 5887 5885 5884 5883 5882 5880 5879 5878 5878 5877 5876 5875 5874 5873 5874 5876 5878 5880 5882 5884 5885 5886 5887 5888 5888 5889 5890 5890 5891 5893 5895 5897
5897 5897 5897 5896 5895 5893 5892 5891 5891 5890 5889 5887 5886 5884 5883 5882 5881 5880 5879 5878 5877 5876 5875 5874 5873 5873 5875 5877 5880 5882 5884 5885 5886 5887 5888 5889 5889 5889 5889 5890 5892 5894 5895
5898 5898 5897 5897 5895 5894 5892 5892 5892 5891 5889 5888 5886 5884 5883 5882 5881 5879 5879 5878 5877 5876 5875 5874 5873 5872 5874 5877 5879 5882 5884 5885 5886 5887 5888 5889 5889 5889 5889 5890 5892 5892 5894
5898 5898 5898 5897 5896 5894 5893 5893 5892 5891 5890 5889 5887 5885 5883 5882 5881 5879 5879 5877 5877 5876 5875 5874 5873 5873 5873 5875 5878 5881 5884 5885 5886 5887 5888 5889 5889 5890 5890 5890 5891 5890 5891
5897 5897 5897 5897 5896 5895 5894 5893 5893 5892 5891 5890 5888 5886 5884 5882 5881 5879 5879 5877 5876 5875 5874 5873 5873 5873 5873 5874 5877 5880 5883 5885 5886 5887 5887 5888 5889 5889 5889 5889 5890 5890 5890
5896 5897 5897 5896 5896 5895 5894 5894 5893 5892 5891 5890 5888 5886 5884 5882 5880 5879 5878 5877 5876 5874 5873 5873 5873 5873 5873 5874 5876 5879 5882 5884 5885 5886 5887 5887 5888 5889 5889 5889 5889 5890 5890
5894 5895 5896 5896 5895 5895 5895 5894 5893 5892 5892 5890 5888 5886 5884 5882 5880 5879 5877 5876 5875 5874 5873 5873 5873 5874 5873 5874 5876 5880 5882 5883 5883 5884 5885 5886 5887 5888 5888 5889 5889 5889 5890
5893 5894 5895 5895 5895 5895 5895 5894 5894 5893 5892 5890 5888 5886 5884 5881 5880 5878 5877 5876 5875 5874 5873 5873 5873 5874 5874 5875 5876 5878 5880 5880 5881 5882 5884 5885 5886 5887 5887 5888 5888 5889 5889
5892 5893 5894 5894 5894 5895 5895 5894 5893 5893 5891 5889 5888 5886 5884 5882 5879 5877 5875 5875 5874 5873 5872 5872 5872 5873 5874 5875 5875 5877 5878 5880 5881 5882 5883 5884 5885 5886 5886 5887 5887 5888 5888
5890 5892 5893 5893 5894 5894 5894 5894 5893 5892 5891 5889 5887 5885 5883 5881 5879 5877 5874 5873 5873 5872 5871 5870 5870 5871 5873 5873 5874 5875 5876 5878 5880 5882 5883 5884 5885 5885 5885 5886 5886 5887 5888
5889 5890 5891 5892 5892 5893 5893 5893 5892 5891 5890 5888 5886 5884 5882 5881 5879 5876 5874 5872 5871 5871 5870 5869 5869 5869 5870 5872 5873 5874 5875 5877 5879 5880 5882 5883 5883 5884 5884 5884 5884 5885 5886
5887 5887 5888 5889 5890 5890 5891 5891 5890 5889 5889 5887 5885 5883 5881 5879 5877 5875 5873 5871 5869 5868 5866 5866 5867 5866 5866 5868 5869 5872 5873 5875 5877 5878 5879 5880 5881 5882 5882 5882 5882 5883 5883
5885 5886 5886 5886 5887 5888 5888 5889 5888 5888 5887 5885 5883 5881 5879 5877 5876 5874 5872 5870 5868 5866 5864 5863 5862 5862 5862 5864 5866 5868 5870 5872 5873 5875 5876 5877 5878 5879 5879 5880 5880 5880 5881
5884 5884 5885 5885 5885 5886 5886 5886 5885 5885 5884 5882 5880 5879 5877 5876 5874 5873 5871 5869 5867 5864 5862 5860 5860 5859 5859 5861 5863 5864 5866 5867 5869 5871 5873 5874 5875 5876 5876 5877 5878 5878 5878
5883 5883 5882 5882 5883 5883 5883 5883 5882 5882 5880 5879 5877 5876 5875 5874 5872 5870 5868 5866 5865 5863 5860 5858 5858 5857 5856 5857 5859 5861 5862 5863 5865 5866 5868 5870 5871 5871 5872 5873 5874 5875 5875
5880 5879 5879 5879 5879 5879 5879 5879 5878 5878 5877 5876 5874 5873 5873 5872 5869 5867 5865 5864 5862 5859 5857 5855 5854 5854 5854 5853 5855 5857 5858 5859 5861 5862 5863 5865 5866 5867 5868 5869 5870 5871 5871
5877 5877 5876 5876 5876 5876 5876 5875 5874 5873 5873 5872 5871 5870 5869 5868 5866 5865 5863 5861 5860 5857 5855 5853 5851 5850 5852 5852 5852 5854 5854 5855 5856 5857 5858 5859 5860 5862 5863 5865 5866 5867 5868
5874 5873 5873 5873 5872 5872 5872 5871 5871 5869 5869 5868 5867 5866 5865 5864 5863 5862 5860 5859 5857 5854 5852 5851 5849 5847 5847 5848 5848 5850 5851 5851 5851 5853 5854 5855 5856 5857 5859 5861 5862 5864 5865
5869 5868 5868 5868 5868 5867 5867 5867 5866 5865 5864 5863 5862 5861 5860 5859 5859 5857 5856 5855 5853 5850 5848 5847 5845 5843 5842 5842 5843 5844 5846 5847 5848 5849 5850 5851 5853 5854 5856 5857 5860 5861 5862
5863 5863 5863 5863 5863 5863 5862 5862 5862 5861 5860 5859 5857 5856 5855 5854 5853 5852 5850 5849 5847 5845 5844 5842 5840 5839 5838 5837 5838 5839 5841 5843 5844 5845 5846 5848 5850 5851 5852 5854 5856 5858 5860
5857 5857 5857 5857 5857 5857 5857 5857 5857 5856 5855 5854 5853 5851 5850 5849 5848 5846 5844 5843 5841 5840 5838 5836 5835 5835 5834 5834 5833 5834 5836 5839 5840 5842 5843 5844 5846 5848 5849 5850 5852 5854 5856
5849 5850 5851 5851 5851 5851 5851 5851 5851 5850 5849 5849 5847 5846 5844 5843 5841 5839 5837 5836 5834 5833 5831 5830 5830 5829 5829 5829 5829 5830 5832 5834 5836 5838 5839 5840 5842 5845 5847 5847 5848 5850 5852
5842 5842 5843 5843 5844 5845 5846 5846 5846 5845 5845 5843 5842 5840 5838 5836 5835 5832 5830 5828 5826 5825 5824 5823 5823 5823 5824 5824 5824 5825 5827 5830 5832 5834 5835 5836 5838 5840 5842 5843 5844 5846 5849
5831 5833 5834 5835 5836 5839 5840 5841 5841 5840 5839 5838 5836 5833 5831 5829 5827 5825 5823 5821 5818 5817 5816 5816 5816 5817 5818 5818 5819 5820 5821 5824 5826 5829 5831 5833 5835 5836 5838 5839 5840 5842 5845
5822 5824 5825 5826 5829 5832 5834 5835 5835 5834 5833 5831 5829 5826 5823 5821 5820 5819 5817 5814 5811 5810 5809 5809 5809 5810 5811 5813 5814 5815 5816 5819 5821 5824 5827 5829 5831 5833 5834 5836 5837 5838 5840
Wind_Speed
9 11 13 14 14 13 10 10 12 13 12 11 11 11 11 11 9 7 4 5 5 6 6 8 10 14 18 18 17 16 14 13 11 8 8 9 13 18 20 20 19 17 15
7 9 11 12 13 12 9 9 10 12 13 14 14 14 12 11 10 8 6 6 5 5 6 6 9 15 19 19 18 16 14 13 11 8 6 5 7 10 16 19 19 17 15
4 7 9 12 13 11 8 7 8 11 13 16 17 16 14 12 10 8 8 8 6 5 5 5 5 11 18 20 19 17 15 13 11 7 6 5 6 6 11 16 17 16 15
2 5 8 11 13 12 8 6 7 9 12 15 18 18 15 13 11 8 9 9 8 6 5 5 4 4 13 19 20 18 16 13 10 8 7 7 6 7 9 11 14 14 13
3 4 7 9 11 11 8 5 6 8 10 13 17 19 17 14 12 9 9 9 8 7 5 5 4 2 6 15 21 20 17 15 12 11 10 9 9 9 10 9 9 9 8
6 5 5 6 9 10 8 6 5 7 9 13 16 19 18 16 14 11 9 9 8 7 6 5 4 4 3 8 15 19 17 14 13 12 11 11 11 11 12 11 8 7 6
8 7 4 4 6 8 8 6 5 6 8 11 14 17 18 16 14 12 10 9 9 8 7 5 4 4 2 5 10 13 12 12 14 14 13 13 13 13 13 10 6 7 7
10 9 6 3 4 6 8 6 5 5 7 10 12 15 17 16 14 12 11 10 10 9 7 6 5 2 1 4 8 10 10 12 16 17 14 12 12 14 14 10 6 6 7
11 10 8 5 4 6 7 7 5 4 6 9 10 13 16 15 14 13 12 11 10 10 10 8 6 5 3 4 9 12 11 10 11 13 13 9 8 8 7 7 7 6 6
12 12 10 7 6 5 6 6 5 4 5 7 9 10 14 16 15 14 13 11 10 9 11 11 8 8 7 7 10 13 13 12 9 10 11 9 7 6 5 6 7 7 6
10 12 11 9 8 7 6 7 6 5 5 7 9 10 12 15 15 14 13 12 10 9 9 10 10 10 10 10 10 12 15 14 11 10 10 10 10 8 7 8 8 9 9
11 12 12 11 10 9 8 8 8 8 7 7 9 11 11 14 15 15 13 12 11 11 10 10 11 11 13 14 14 14 15 14 13 12 13 13 12 10 9 9 9 10 10
13 13 12 12 10 10 10 11 12 10 9 9 10 11 12 13 15 16 14 13 13 14 13 11 10 11 13 17 18 16 16 15 15 15 16 16 15 13 12 11 11 11 10
12 12 13 13 13 12 12 12 14 13 12 11 11 11 12 14 15 16 15 15 14 15 15 11 9 12 14 15 16 16 16 17 18 19 19 19 19 18 16 15 13 12 11
11 14 14 15 15 15 14 14 15 16 15 13 12 11 11 13 15 15 15 16 15 15 15 12 9 12 14 14 15 16 18 19 20 21 22 22 22 22 22 19 16 14 13
14 15 15 16 18 18 16 16 17 17 15 14 14 12 11 11 13 15 16 16 15 15 15 13 10 11 15 16 16 17 18 19 19 20 20 20 19 19 20 20 18 16 15
14 15 16 17 18 18 17 16 17 17 16 15 14 13 12 11 11 13 15 16 15 14 13 12 11 11 15 17 17 18 18 18 20 19 19 20 20 19 19 20 19 17 16
14 15 16 17 17 16 16 16 17 18 17 16 15 15 14 13 12 12 15 17 17 14 11 10 11 13 14 17 17 17 17 18 17 18 18 18 19 19 19 19 18 17 17
16 16 16 16 16 16 16 16 17 18 18 18 18 18 18 16 13 13 17 19 19 18 15 11 10 13 15 18 18 16 16 17 16 15 15 15 16 17 17 19 18 18 17
20 20 19 18 18 17 17 17 17 18 18 17 17 17 17 15 14 17 20 21 21 21 20 16 13 15 18 20 20 19 16 16 16 14 15 15 16 16 17 18 18 18 18
20 20 21 21 21 20 18 18 18 19 19 18 16 15 15 14 17 21 23 23 23 23 23 21 18 17 19 21 22 21 18 16 16 15 15 16 16 15 16 18 18 18 19
22 20 21 23 24 24 23 22 23 21 19 17 15 16 16 17 20 23 26 26 25 26 26 25 22 20 20 23 24 23 20 17 16 15 14 15 16 16 15 17 20 20 21
25 23 23 25 25 25 24 23 20 16 14 14 15 17 19 21 23 25 26 26 26 27 27 26 24 23 23 24 25 24 22 19 17 16 14 14 17 18 17 18 20 22 24
30 28 27 27 25 25 25 22 18 14 13 14 17 20 22 23 25 25 26 25 24 25 26 25 24 23 24 26 27 27 25 20 17 17 15 14 16 17 18 19 20 22 25
31 30 30 27 24 23 22 21 18 17 16 18 19 22 24 24 25 25 25 25 24 24 26 26 25 23 25 28 29 27 25 22 19 19 17 15 15 14 15 17 19 20 24
34 33 33 26 22 20 19 17 17 17 19 20 21 22 25 25 24 24 25 26 25 25 25 25 23 23 26 30 31 27 25 22 21 20 18 17 15 13 13 14 16 17 20
Wind_Direction
44 34 28 29 28 33 45 49 42 36 34 27 22 17 15 15 13 15 6 348 327 308 292 269 244 228 219 217 218 219 225 224 214 204 209 205 216 226 230 233 233 232 234
39 31 26 23 22 24 37 51 44 35 32 26 19 12 10 13 11 15 16 0 341 325 315 291 246 226 221 218 215 213 215 210 202 200 204 201 212 226 225 222 224 224 225
25 21 19 19 19 21 32 47 42 35 30 24 16 10 8 11 9 6 9 7 353 341 337 327 282 232 223 219 214 211 212 216 209 208 209 218 232 237 220 212 212 214 216
345 2 8 13 15 19 30 39 33 28 24 20 16 13 10 10 9 358 355 360 353 341 345 348 329 244 222 220 216 213 212 218 220 220 215 221 234 235 212 208 212 215 216
274 323 356 10 15 18 24 31 23 19 18 16 16 15 15 12 7 354 345 351 349 334 331 353 358 345 229 224 219 215 213 213 215 217 216 225 233 232 215 212 210 206 210
249 271 331 6 16 15 17 18 4 5 13 14 14 12 13 13 7 355 342 340 341 327 314 330 355 356 274 228 222 219 213 211 219 218 224 234 237 224 212 213 215 208 208
244 248 283 342 11 12 9 1 352 354 6 9 10 7 8 10 7 359 349 337 333 325 308 305 327 348 309 223 216 212 213 225 235 237 244 249 237 219 208 208 214 214 210
239 240 254 299 349 7 2 347 340 350 2 6 8 8 8 8 5 359 350 337 327 322 313 299 294 300 320 203 207 211 221 238 243 242 244 247 238 224 215 212 217 217 207
235 239 253 278 313 349 354 346 340 344 358 6 7 12 14 9 3 357 346 335 325 317 312 301 281 255 226 201 205 214 225 236 233 226 229 234 242 241 226 225 229 228 227
232 234 248 267 284 316 345 350 344 339 349 0 3 8 13 12 5 357 349 337 328 318 307 299 283 255 232 216 211 215 223 230 227 216 215 219 232 245 244 241 241 238 241
238 237 245 256 267 284 312 341 346 330 333 350 1 358 3 12 8 360 355 347 335 327 313 298 285 265 243 230 223 221 223 226 223 221 223 228 236 243 252 257 254 250 245
237 236 241 246 255 270 287 303 319 326 323 334 357 3 3 9 7 2 354 351 341 328 317 302 284 266 246 234 227 225 228 227 224 226 229 235 241 247 255 264 265 262 253
240 235 234 238 248 265 277 286 291 307 316 316 332 350 358 0 2 0 352 348 344 331 321 310 287 267 251 240 234 231 234 236 234 235 236 239 245 250 257 263 265 264 257
247 237 236 239 246 259 271 280 283 287 299 308 318 334 348 355 357 357 351 347 343 334 324 314 287 268 259 252 247 244 244 245 245 245 245 245 248 253 259 261 256 258 257
245 234 234 243 251 259 268 279 282 282 284 291 302 315 328 346 352 352 353 356 349 339 330 314 289 268 261 253 250 250 250 251 251 251 250 249 252 256 257 254 246 249 252
253 243 243 252 259 264 269 273 277 280 282 283 290 302 316 331 344 348 350 354 349 342 338 320 294 265 258 254 252 253 253 254 255 253 251 250 251 255 250 242 239 245 250
262 256 255 259 264 270 273 274 276 279 282 283 289 298 307 315 330 336 337 342 340 338 339 325 301 270 254 253 254 254 255 257 256 253 252 253 257 258 250 240 239 246 248
273 267 263 264 267 269 271 273 277 280 280 279 285 293 298 304 310 321 325 329 325 319 324 318 300 285 263 254 253 252 255 259 256 253 256 257 258 253 245 241 244 246 241
278 272 266 267 269 269 269 270 276 282 282 282 285 288 292 299 293 305 314 316 312 307 306 295 284 279 268 258 255 252 253 255 250 251 254 254 254 248 239 238 242 243 238
277 275 272 273 272 269 266 268 276 283 285 286 286 286 288 287 277 296 303 301 299 295 293 284 268 265 261 256 253 252 251 251 243 245 249 249 247 242 233 231 235 237 233
273 273 274 273 270 267 266 269 277 285 290 292 290 288 293 286 285 295 299 298 291 287 285 278 264 257 254 251 248 248 248 249 242 245 247 242 233 228 224 225 229 231 224
269 270 271 271 269 268 270 274 278 281 285 290 291 290 293 292 290 291 294 293 288 284 281 276 267 258 249 247 248 246 245 241 241 243 243 235 223 222 225 225 227 228 220
263 265 268 270 268 268 271 275 279 281 283 288 291 293 293 291 289 288 289 289 286 283 279 274 268 259 248 244 244 243 241 237 237 237 236 232 223 225 232 233 232 229 222
254 259 263 264 266 269 273 278 282 282 285 291 293 292 291 290 289 287 285 286 284 279 274 269 265 260 248 241 241 240 239 237 233 230 229 227 224 226 231 235 238 233 226
244 248 253 253 258 266 274 279 281 284 292 295 295 295 295 293 291 289 287 286 283 276 267 262 262 261 251 244 242 242 235 230 225 223 225 225 224 225 228 234 238 237 230
238 243 245 243 249 257 266 272 279 288 294 297 297 296 295 294 290 288 287 287 286 281 270 262 259 256 250 245 243 242 233 227 220 220 224 226 226 225 224 228 233 235 230